Lid_Strength_Index
5 5 5 5 6 6 7 9 9 9 9 10 11 12 12 12 12 12 11 11 11 11 11 12 12 12 12 13 13 13 13 13
5 5 6 6 6 7 8 9 10 9 9 10 11 12 12 13 12 11 11 11 11 12 12 13 12 13 13 13 14 14 14 14
6 6 6 6 7 6 8 9 10 9 9 9 11 11 12 12 12 12 12 12 12 12 13 13 13 13 14 14 14 15 15 15
6 6 7 7 7 6 8 8 9 9 9 11 12 12 13 13 13 13 13 12 12 13 13 13 13 13 14 14 14 14 15 14
6 6 7 7 6 6 7 8 9 9 10 11 12 12 13 13 14 14 13 12 13 13 13 13 13 13 14 13 13 14 14 15
6 6 7 7 6 6 6 8 9 9 10 11 11 12 13 14 14 14 14 14 14 13 14 14 14 14 14 14 14 14 14 15
6 6 7 7 7 7 7 8 9 10 10 10 11 12 14 15 15 15 15 15 14 14 14 14 14 14 14 14 14 14 15 14
8 8 8 8 8 7 7 8 9 10 10 11 11 12 13 14 15 15 15 16 15 15 14 15 15 14 14 14 15 15 15 15
9 8 8 8 8 8 8 8 10 10 11 11 11 12 13 14 14 15 14 15 15 15 15 14 14 14 14 15 15 15 15 15
10 9 9 8 8 8 8 9 9 10 10 11 11 12 13 14 14 14 14 14 14 15 14 15 15 14 14 15 15 16 15 15
10 10 10 9 10 9 9 9 9 10 10 10 11 11 12 13 14 14 14 15 14 15 15 15 15 15 15 15 16 16 16 16
10 10 10 10 10 9 10 9 10 10 10 10 11 12 12 13 14 14 14 14 15 14 14 15 15 15 15 16 16 16 17 17
9 10 10 10 10 11 11 10 10 9 9 11 12 13 13 14 14 14 14 14 14 14 14 14 14 15 15 16 16 16 17 17
10 10 10 10 10 11 11 11 11 11 12 12 13 13 13 13 14 14 14 14 14 14 14 14 14 15 15 16 16 16 17 17
9 9 10 9 9 10 10 10 11 11 13 13 14 13 13 13 14 14 14 14 14 14 14 14 14 14 15 15 16 17 17 17
9 8 8 8 9 9 9 9 9 11 12 12 13 14 13 14 14 14 14 14 15 15 14 15 14 15 15 15 16 17 16 16
8 8 8 9 9 9 9 9 10 10 11 12 13 13 13 14 15 14 14 15 15 15 15 15 15 14 13 14 16 18 18 18
8 8 7 7 7 8 9 8 8 10 10 11 12 13 14 14 14 14 15 15 15 15 15 14 15 14 13 13 15 18 20 21
8 8 7 6 6 6 7 7 8 9 9 10 12 12 13 13 14 14 15 15 15 15 15 15 15 14 12 13 14 18 18 18